Regional Weather Roundup
Issued by NWS

Home | Current Version | Previous Version | Text Only | Print | Product List | Glossary On
Versions: 1 2 3 4 5 6 7 8 9 10 11 12 13 14 15 16 17 18 19 20 21 22 23 24 25 26 27 28 29 30 31 32 33 34 35 36 37 38 39 40 41 42 43 44 45 46 47 48 49 50
000
ASHW40 PHFO 031730
RWRHI

WEATHER ROUNDUP FOR HAWAII
NATIONAL WEATHER SERVICE HONOLULU HI
700 AM HST THU SEP 03 2015

THIS IS AN AUTOMATED REPORT THAT HAS NOT BEEN QUALITY CONTROLLED.

NOTE..."FAIR" INDICATES FEW OR NO CLOUDS BELOW 12,000 FEET WITH NO
SIGNIFICANT WEATHER AND/OR OBSTRUCTIONS TO VISIBILITY.

* - THESE SITES REPORT LIMITED FIELDS

HIZ001>004-031800-
KAUAI-NIIHAU-

CITY           SKY/WX    TMP DP  RH WIND       PRES   REMARKS
LIHUE APT      CLEAR     75  72  90 W6        29.89R
PORT ALLEN*    NOT AVBL
POIPU*           N/A     77 N/A N/A VRB2        N/A
PRINCEVILLE*     N/A     73 N/A N/A MISG        N/A
KOKOLE POINT*  NOT AVBL
MOLOAA DAIRY*    N/A     75  73  94 SE7G14      N/A
WAIMEA HTS*    NOT AVBL
PUU OPAE*      NOT AVBL
PUU LUA*       NOT AVBL
MAKAHA RIDGE*    N/A     73  63  68 CALM        N/A
$$

HIZ005>011-031800-
OAHU-

CITY           SKY/WX    TMP DP  RH WIND       PRES   REMARKS
HONOLULU       CLOUDY    79  76  90 E7        29.86R
KALAELOA       MOCLDY    78  76  93 CALM      29.88R
KANEOHE MCB    CLOUDY    77  74  90 SE13G23   29.88R THUNDER
WHEELER FIELD  FAIR      75  73  94 SE2       29.89R
BELLOWS*         N/A    N/A N/A N/A NE2G9       N/A
KAHUKU*          N/A    N/A N/A N/A NE1         N/A
WHEELER*       NOT AVBL
WAIANAE HARBOR NOT AVBL
DILLINGHAM*      N/A     73  72  94 MISG        N/A
KAHUKU TRN*      N/A     75  72  88 CALM        N/A
KAWAILOA*        N/A     73  68  83 E3          N/A
KII*             N/A     75  75 100 CALM        N/A
MAKUA RANGE*     N/A     90  81  74 SE3         N/A  HX 108
OAHU FOREST NW NOT AVBL
SCHOFIELD BRK*   N/A     73  72  94 SE1         N/A
SCHOFIELD S*   NOT AVBL
WAIANAE VLY*   NOT AVBL
KUAOKALA*      NOT AVBL
HONOULIUULI*   NOT AVBL
MOKUOLOE IS*   NOT AVBL
PALEHUA*       NOT AVBL
WAIAWA PHB*    NOT AVBL
$$

HIZ012>013-031800-
MOLOKAI-

CITY           SKY/WX    TMP DP  RH WIND       PRES   REMARKS
MOLOKAI AIRPT  CLOUDY    78  70  76 E5        29.91R
KALAUPAPA      NOT AVBL
MAKAPULAPAI*   NOT AVBL
MOLOKAI 1*     NOT AVBL
PUU ALII*        N/A     63  62  96 CALM        N/A
$$

HIZ016-031800-
KAHOOLAWE-

CITY           SKY/WX    TMP DP  RH WIND       PRES   REMARKS
KAHOOLAWE*     NOT AVBL
HAKIOAWA*        N/A     77  72  85 MISG      30.33R
HONOKANAIA*      N/A     81  73  76 E5G13     29.82R
KANELOA*         N/A     79  73  83 NE10G16   29.96R
KEALIALALO*      N/A     79  73  83 SE13G21     N/A
LUA MAKIKA*    NOT AVBL
$$

HIZ014>015-031800-
LANAI-

CITY           SKY/WX    TMP DP  RH WIND       PRES   REMARKS
LANAI CITY     FAIR      73  70  90 E7        29.96R
LANAI 1*       NOT AVBL
$$

HIZ017>028-031800-
MAUI-

CITY           SKY/WX    TMP DP  RH WIND       PRES   REMARKS
KAHULUI        CLOUDY    75  72  89 S3        29.89S
KAPALUA-W MAUI PTSUNNY   77  68  73 SE7       29.89S
HANA AIRPORT   HVY RAIN  79  77  94 E7        29.93R VSB 1/2
HANA*            N/A     81 N/A N/A E5G10       N/A
HALEAKALA SUMM   N/A     50  50 100 SE9G29      N/A
MAALAEA BAY*   NOT AVBL
HALEAKALA*     NOT AVBL
KAUPO GAP*     NOT AVBL
KULA 1*          N/A     58  52  80 E3          N/A
$$

HIZ023>026-031800-
BIG ISLAND OF HAWAII COAST AND LOWER SLOPES-

CITY           SKY/WX    TMP DP  RH WIND       PRES   REMARKS
KAILUA KONA    MOSUNNY   79  73  82 NE8       29.87R
HILO           PTSUNNY   75  70  84 S3        29.92R
HONOKAA*       NOT AVBL
KAWAIHAE MWT*    N/A     81 N/A N/A E2          N/A
KAWAIHAE*        N/A     82 N/A N/A W1          N/A
SOUTH POINT*     N/A     73 N/A N/A NE3         N/A
UPOLU AIRPORT*   N/A    N/A N/A N/A SE8         N/A
KAMUELA*       NOT AVBL
HAKALAU*         N/A     55  47  75 S6          N/A
KALOKO-HONOKO*   N/A     79  73  83 E2        29.87R
PALI 2*          N/A     70  66  88 N7          N/A
KEALAKOMO*     NOT AVBL
KAUPULEHU*     NOT AVBL
KAPAPALA*        N/A     67  65  94 N3          N/A
LOWER KAHUKU*    N/A     66 N/A N/A VRB3G12     N/A
PUHE CS*         N/A     79  70  73 E3          N/A
PUHO CS*         N/A     73  65  74 E3          N/A
PTA KEAMUKU*     N/A     66  61  82 CALM        N/A
WAIKOLOA*      NOT AVBL
$$

HIZ027>028-031800-
BIG ISLAND OF HAWAII INTERIOR AND SUMMMITS-

CITY           SKY/WX    TMP DP  RH WIND       PRES   REMARKS
BRADSHAW FIELD FOG       57  57 100 N3        30.28S VSB 1/2
MK VISITOR CEN   N/A     54  39  58 E3          N/A
MAUNA KEA*       N/A     39  34  81 S2          N/A
MAUNA LOA*       N/A     45  37  76 MISG        N/A
MAUNA LOA 1*   NOT AVBL
PTA KIPUKA*      N/A     59  57  94 E3          N/A
PTA RANGE 17*    N/A     70  68  94 SE3         N/A
PTA WEST*        N/A     61  59  94 SE7         N/A
NENE CABIN*      N/A     55  43  62 NE3         N/A
AHUMOA*        NOT AVBL
PTA PORTABLE*  NOT AVBL
PUU MALI*        N/A     61  54  77 SE3         N/A
$$

HIC003-031800-
NORTHWEST ISLANDS-

CITY           SKY/WX    TMP DP  RH WIND       PRES   REMARKS
MIDWAY ISLAND  CLEAR     81  75  83 E7        29.90F
MIDWAY NOS*    NOT AVBL
FRENCH FRIGATE NOT AVBL
$$

PHZ110>124-180-031800-
BUOY REPORTS

STATION/POSITION TIME  TEMP    WIND        PRES    WAVE   SWELL
                       AIR SEA DIR/SP/G            HT/PER HT/DIR
                 (UTC) (F)     (DEG/KT/KT) (MB)    (FT/S) (FT/D)
BUOY 51001       1659   81 82  230/ 12/ 16 1010.3
BUOY 51101       1700   81 83  230/ 12/ 16 1009.6R  10/10  10/ 40
BUOY 51100       NOT AVBL
BUOY 51002       1700   82 84  150/  6/  8 1011.0R   7/14   7/110
BUOY 51003       1700   80 85  170/ 12/ 14 1010.6R   6/15   7/180
BUOY 51004       1640   82 83   30/ 12/ 14 1011.4R  10/15  10/ 90
BARBERS PT BUOY  NOT AVBL
WAIMEA BAY BUOY  1700      83                N/A     7/10   3/350
KAILUA BAY BUOY  1700      83                N/A     7/11   5/ 10
LANAI BUOY       NOT AVBL
BARBERS PT 2     1700      83                N/A     5/18   3/180
PAUWELA MAUI     1700      82                N/A     9/12   7/ 70
HILO             NOT AVBL
KANEOHE BAY BUOY 1700      83                N/A     7/11   5/350
HANALEI KAUAI    1700      83                N/A     9/13   7/ 80
KAHULUI HARBOR   1700   79 83  310/  2/  4 1011.9S
HONOLULU HARBOR  1700   82 83   CALM  /  5 1011.9R
KILO NALU        NOT AVBL
HILO HARBOR      1700   76 81  190/  4/  6 1012.8R
MOKUOLOE         1700   80 86   CALM  /  2 1011.6S
NAWILIWILI       1700   75 83  280/  4/  5 1012.0R
WHOTS BUOY       NOT AVBL
BUOY 51028       NOT AVBL
$$

......................KEY........................................
  SKY/WX - SKY CONDITIONS/PRESENT WEATHER
  TMP    - TEMPERATURE IN FAHRENHEIT
  DWPT   - DEWPOINT IN FAHRENHEIT
  RH     - RELATIVE HUMIDITY IN PERCENT
  WIND   - DIRECTION AND SPEED /MPH FOR ISLANDS...KTS FOR BUOYS/
  PRES   - MEAN SEA LEVEL PRESSURE IN INCHES OF HG
  VSB    - VISIBILITY IN MILES
  HX     - HEAT INDEX
  WCI    - WIND CHILL INDEX
  VRB    - VARIABLE WIND DIRECTION
  N/A    - NOT AVAILABLE


USA.gov is the U.S. government's official web portal to all federal, state and local government web resources and services.